Time,TemperatureF,DewpointF,PressureIn,WindDirection,WindDirectionDegrees,WindSpeedMPH,WindSpeedGustMPH,Humidity,HourlyPrecipIn,Conditions,Clouds,dailyrainin,SolarRadiationWatts/m^2,SoftwareType,DateUTC
2013-06-14 00:01:00,55.6,55.0,29.35,ENE,78,4.0,9.0,98,0.04,,,0.00,0,WeatherCatV1.14B232,2013-06-14 04:01:00,
2013-06-14 00:06:00,55.7,55.1,29.36,NNE,22,6.0,10.0,98,0.00,,,0.00,0,WeatherCatV1.14B232,2013-06-14 04:06:00,
2013-06-14 00:11:00,55.6,55.0,29.37,North,355,0.0,6.0,98,0.00,,,0.00,0,WeatherCatV1.14B232,2013-06-14 04:11:00,
2013-06-14 00:16:00,55.5,54.9,29.36,NE,34,2.0,4.0,98,0.00,,,0.00,0,WeatherCatV1.14B232,2013-06-14 04:16:00,
2013-06-14 00:21:00,55.4,54.8,29.36,NNE,17,0.0,4.0,98,0.00,,,0.01,0,WeatherCatV1.14B232,2013-06-14 04:21:00,
2013-06-14 00:26:00,55.3,54.7,29.36,North,350,4.0,10.0,98,0.00,,,0.01,0,WeatherCatV1.14B232,2013-06-14 04:26:00,
2013-06-14 00:31:00,55.3,54.7,29.37,North,355,2.0,5.0,98,0.00,,,0.01,0,WeatherCatV1.14B232,2013-06-14 04:31:00,
2013-06-14 00:36:00,55.2,54.6,29.37,NNE,23,2.0,6.0,98,0.00,,,0.01,0,WeatherCatV1.14B232,2013-06-14 04:36:00,
2013-06-14 00:41:00,55.0,54.4,29.37,NNE,22,0.0,10.0,98,0.00,,,0.02,0,WeatherCatV1.14B232,2013-06-14 04:41:00,
2013-06-14 00:46:00,54.9,54.3,29.38,North,355,4.0,5.0,98,0.00,,,0.02,0,WeatherCatV1.14B232,2013-06-14 04:46:00,
2013-06-14 00:51:00,54.7,54.1,29.38,NNE,17,0.0,8.0,98,0.04,,,0.03,0,WeatherCatV1.14B232,2013-06-14 04:51:00,
2013-06-14 00:56:00,54.5,53.9,29.38,NNE,27,4.0,5.0,98,0.04,,,0.03,0,WeatherCatV1.14B232,2013-06-14 04:56:00,
2013-06-14 01:01:00,54.4,53.8,29.38,NE,40,3.0,8.0,98,0.04,,,0.03,0,WeatherCatV1.14B232,2013-06-14 05:01:00,
2013-06-14 01:06:00,54.2,53.6,29.38,ENE,63,2.0,6.0,98,0.04,,,0.03,0,WeatherCatV1.14B232,2013-06-14 05:06:00,
2013-06-14 01:11:00,54.1,53.5,29.39,ENE,63,2.0,8.0,98,0.00,,,0.03,0,WeatherCatV1.14B232,2013-06-14 05:11:00,
2013-06-14 01:16:00,54.0,53.4,29.39,NNE,26,0.0,5.0,98,0.00,,,0.03,0,WeatherCatV1.14B232,2013-06-14 05:16:00,
2013-06-14 01:21:00,54.0,53.4,29.39,NNE,27,3.0,3.0,98,0.00,,,0.03,0,WeatherCatV1.14B232,2013-06-14 05:21:00,
2013-06-14 01:26:00,53.9,53.3,29.40,NE,44,1.0,3.0,98,0.00,,,0.03,0,WeatherCatV1.14B232,2013-06-14 05:26:00,
2013-06-14 01:31:00,53.8,53.2,29.40,NNE,30,1.0,4.0,98,0.00,,,0.03,0,WeatherCatV1.14B232,2013-06-14 05:31:00,
2013-06-14 01:36:00,53.7,53.1,29.41,NNE,28,0.0,5.0,98,0.00,,,0.03,0,WeatherCatV1.14B232,2013-06-14 05:36:00,
2013-06-14 01:41:00,53.7,53.1,29.41,NE,35,1.0,6.0,98,0.00,,,0.04,0,WeatherCatV1.14B232,2013-06-14 05:41:00,
2013-06-14 01:46:00,53.7,53.1,29.41,NNW,347,2.0,5.0,98,0.00,,,0.04,0,WeatherCatV1.14B232,2013-06-14 05:46:00,
2013-06-14 01:51:00,53.7,53.1,29.41,North,5,3.0,4.0,98,0.00,,,0.04,0,WeatherCatV1.14B232,2013-06-14 05:51:00,
2013-06-14 01:56:00,53.8,53.2,29.42,NW,309,0.0,3.0,98,0.00,,,0.04,0,WeatherCatV1.14B232,2013-06-14 05:56:00,
2013-06-14 02:01:00,53.8,53.2,29.42,North,9,0.0,3.0,98,0.00,,,0.04,0,WeatherCatV1.14B232,2013-06-14 06:01:00,
2013-06-14 02:06:00,53.8,53.2,29.41,NNW,333,2.0,4.0,98,0.00,,,0.05,0,WeatherCatV1.14B232,2013-06-14 06:06:00,
2013-06-14 02:11:00,53.9,53.3,29.41,NW,311,2.0,4.0,98,0.00,,,0.05,0,WeatherCatV1.14B232,2013-06-14 06:11:00,
2013-06-14 02:16:00,53.8,53.2,29.42,North,350,0.0,6.0,98,0.00,,,0.05,0,WeatherCatV1.14B232,2013-06-14 06:16:00,
2013-06-14 02:21:00,53.9,53.3,29.42,North,5,1.0,3.0,98,0.04,,,0.06,0,WeatherCatV1.14B232,2013-06-14 06:21:00,
2013-06-14 02:26:00,53.8,53.2,29.42,ENE,63,1.0,5.0,98,0.12,,,0.07,0,WeatherCatV1.14B232,2013-06-14 06:26:00,
2013-06-14 02:31:00,53.7,53.1,29.43,NNE,27,1.0,6.0,98,0.13,,,0.08,0,WeatherCatV1.14B232,2013-06-14 06:31:00,
2013-06-14 02:36:00,53.7,53.1,29.43,NNW,348,5.0,5.0,98,0.21,,,0.10,0,WeatherCatV1.14B232,2013-06-14 06:36:00,
2013-06-14 02:41:00,53.7,53.1,29.43,NNE,32,1.0,4.0,98,0.11,,,0.11,0,WeatherCatV1.14B232,2013-06-14 06:41:00,
2013-06-14 02:46:00,53.7,53.1,29.43,NNE,21,3.0,6.0,98,0.10,,,0.11,0,WeatherCatV1.14B232,2013-06-14 06:46:00,
2013-06-14 02:51:00,53.7,53.1,29.43,North,11,3.0,3.0,98,0.05,,,0.11,0,WeatherCatV1.14B232,2013-06-14 06:51:00,
2013-06-14 02:56:00,53.6,53.0,29.43,NNW,339,1.0,4.0,98,0.05,,,0.12,0,WeatherCatV1.14B232,2013-06-14 06:56:00,
2013-06-14 03:01:00,53.7,53.1,29.44,North,355,0.0,4.0,98,0.05,,,0.12,0,WeatherCatV1.14B232,2013-06-14 07:01:00,
2013-06-14 03:06:00,53.7,53.1,29.44,NNW,348,0.0,5.0,98,0.05,,,0.13,0,WeatherCatV1.14B232,2013-06-14 07:06:00,
2013-06-14 03:11:00,53.7,53.1,29.44,North,5,3.0,3.0,98,0.05,,,0.13,0,WeatherCatV1.14B232,2013-06-14 07:11:00,
2013-06-14 03:16:00,53.6,53.0,29.44,NW,317,2.0,3.0,98,0.05,,,0.13,0,WeatherCatV1.14B232,2013-06-14 07:16:00,
2013-06-14 03:21:00,53.6,53.0,29.44,NNE,22,2.0,3.0,98,0.04,,,0.14,0,WeatherCatV1.14B232,2013-06-14 07:21:00,
2013-06-14 03:26:00,53.5,52.9,29.44,NNE,17,1.0,2.0,98,0.04,,,0.14,0,WeatherCatV1.14B232,2013-06-14 07:26:00,
2013-06-14 03:31:00,53.5,52.9,29.44,NNW,340,0.0,5.0,98,0.06,,,0.15,0,WeatherCatV1.14B232,2013-06-14 07:31:00,
2013-06-14 03:36:00,53.4,52.8,29.44,NNW,341,0.0,3.0,98,0.06,,,0.15,0,WeatherCatV1.14B232,2013-06-14 07:36:00,
2013-06-14 03:41:00,53.3,52.7,29.45,NNW,327,3.0,3.0,98,0.08,,,0.16,0,WeatherCatV1.14B232,2013-06-14 07:41:00,
2013-06-14 03:46:00,53.3,52.7,29.45,North,355,2.0,2.0,98,0.07,,,0.17,0,WeatherCatV1.14B232,2013-06-14 07:46:00,
2013-06-14 03:51:00,53.3,52.7,29.45,NNE,24,2.0,4.0,98,0.07,,,0.17,0,WeatherCatV1.14B232,2013-06-14 07:51:00,
2013-06-14 03:56:00,53.3,52.7,29.45,North,11,1.0,4.0,98,0.06,,,0.17,0,WeatherCatV1.14B232,2013-06-14 07:56:00,
2013-06-14 04:01:00,53.2,52.6,29.45,North,351,0.0,1.0,98,0.04,,,0.17,0,WeatherCatV1.14B232,2013-06-14 08:01:00,
2013-06-14 04:06:00,53.2,52.6,29.45,NE,40,1.0,4.0,98,0.00,,,0.17,0,WeatherCatV1.14B232,2013-06-14 08:06:00,
2013-06-14 04:11:00,53.1,52.5,29.45,North,5,5.0,5.0,98,0.00,,,0.17,0,WeatherCatV1.14B232,2013-06-14 08:11:00,
2013-06-14 04:16:00,53.0,52.4,29.45,North,10,1.0,4.0,98,0.00,,,0.17,0,WeatherCatV1.14B232,2013-06-14 08:16:00,
2013-06-14 04:21:00,53.0,52.4,29.45,NNE,20,1.0,1.0,98,0.00,,,0.17,0,WeatherCatV1.14B232,2013-06-14 08:21:00,
2013-06-14 04:26:00,53.0,52.4,29.45,NE,37,1.0,4.0,98,0.00,,,0.18,0,WeatherCatV1.14B232,2013-06-14 08:26:00,
2013-06-14 04:31:00,52.9,52.3,29.45,NNE,27,2.0,5.0,98,0.00,,,0.18,0,WeatherCatV1.14B232,2013-06-14 08:31:00,
2013-06-14 04:36:00,52.9,52.3,29.45,NNE,17,0.0,3.0,98,0.00,,,0.18,0,WeatherCatV1.14B232,2013-06-14 08:36:00,
2013-06-14 04:41:00,53.0,52.4,29.45,North,355,2.0,5.0,98,0.00,,,0.18,0,WeatherCatV1.14B232,2013-06-14 08:41:00,
2013-06-14 04:46:00,52.9,52.3,29.46,NE,49,1.0,4.0,98,0.00,,,0.18,0,WeatherCatV1.14B232,2013-06-14 08:46:00,
2013-06-14 04:51:00,52.8,52.2,29.46,ENE,61,1.0,5.0,98,0.00,,,0.18,0,WeatherCatV1.14B232,2013-06-14 08:51:00,
2013-06-14 04:56:00,52.9,52.3,29.46,North,10,2.0,4.0,98,0.00,,,0.18,0,WeatherCatV1.14B232,2013-06-14 08:56:00,
2013-06-14 05:01:00,52.8,52.2,29.46,NNE,30,0.0,7.0,98,0.00,,,0.18,0,WeatherCatV1.14B232,2013-06-14 09:01:00,
2013-06-14 05:06:00,52.8,52.2,29.46,NE,46,2.0,3.0,98,0.00,,,0.18,0,WeatherCatV1.14B232,2013-06-14 09:06:00,
2013-06-14 05:11:00,52.8,52.2,29.47,NNE,14,2.0,2.0,98,0.00,,,0.18,0,WeatherCatV1.14B232,2013-06-14 09:11:00,
2013-06-14 05:16:00,53.0,52.4,29.48,NW,317,1.0,4.0,98,0.00,,,0.18,0,WeatherCatV1.14B232,2013-06-14 09:16:00,
2013-06-14 05:21:00,53.0,52.4,29.49,NNW,344,2.0,2.0,98,0.00,,,0.18,0,WeatherCatV1.14B232,2013-06-14 09:21:00,
2013-06-14 05:26:00,52.9,52.3,29.48,NW,322,0.0,1.0,98,0.00,,,0.18,0,WeatherCatV1.14B232,2013-06-14 09:26:00,
2013-06-14 05:31:00,53.0,52.4,29.49,NE,43,1.0,3.0,98,0.00,,,0.18,0,WeatherCatV1.14B232,2013-06-14 09:31:00,
2013-06-14 05:36:00,53.0,52.4,29.49,North,0,0.0,2.0,98,0.00,,,0.18,0,WeatherCatV1.14B232,2013-06-14 09:36:00,
2013-06-14 05:41:00,53.0,52.7,29.50,North,0,0.0,2.0,99,0.00,,,0.18,0,WeatherCatV1.14B232,2013-06-14 09:41:00,
2013-06-14 05:46:00,53.0,52.4,29.50,North,5,0.0,3.0,98,0.00,,,0.18,0,WeatherCatV1.14B232,2013-06-14 09:46:00,
2013-06-14 05:51:00,53.0,52.7,29.50,North,9,0.0,3.0,99,0.00,,,0.18,0,WeatherCatV1.14B232,2013-06-14 09:51:00,
2013-06-14 05:56:00,53.0,52.7,29.50,NNE,24,0.0,3.0,99,0.00,,,0.18,0,WeatherCatV1.14B232,2013-06-14 09:56:00,
2013-06-14 06:01:00,52.9,52.3,29.50,NNW,338,0.0,5.0,98,0.00,,,0.18,0,WeatherCatV1.14B232,2013-06-14 10:01:00,
2013-06-14 06:06:00,52.9,52.3,29.51,NNE,28,2.0,4.0,98,0.00,,,0.18,0,WeatherCatV1.14B232,2013-06-14 10:06:00,
2013-06-14 06:11:00,53.0,52.4,29.51,NNW,342,1.0,2.0,98,0.00,,,0.18,5,WeatherCatV1.14B232,2013-06-14 10:11:00,
2013-06-14 06:16:00,53.1,52.8,29.51,NNE,32,1.0,3.0,99,0.00,,,0.18,5,WeatherCatV1.14B232,2013-06-14 10:16:00,
2013-06-14 06:21:00,53.1,52.8,29.52,NE,34,2.0,3.0,99,0.00,,,0.18,7,WeatherCatV1.14B232,2013-06-14 10:21:00,
2013-06-14 06:26:00,53.1,52.5,29.52,North,5,0.0,2.0,98,0.00,,,0.18,9,WeatherCatV1.14B232,2013-06-14 10:26:00,
2013-06-14 06:31:00,53.2,52.9,29.52,NNW,342,3.0,3.0,99,0.00,,,0.18,12,WeatherCatV1.14B232,2013-06-14 10:31:00,
2013-06-14 06:36:00,53.2,52.6,29.53,NE,44,1.0,2.0,98,0.00,,,0.18,11,WeatherCatV1.14B232,2013-06-14 10:36:00,
2013-06-14 06:41:00,53.2,52.6,29.53,NNE,22,1.0,4.0,98,0.00,,,0.18,12,WeatherCatV1.14B232,2013-06-14 10:41:00,
2013-06-14 06:46:00,53.2,52.6,29.53,NNE,19,0.0,1.0,98,0.00,,,0.18,21,WeatherCatV1.14B232,2013-06-14 10:46:00,
2013-06-14 06:51:00,53.3,52.7,29.53,NNW,331,2.0,2.0,98,0.00,,,0.18,37,WeatherCatV1.14B232,2013-06-14 10:51:00,
2013-06-14 06:56:00,53.4,52.8,29.53,NNW,338,2.0,2.0,98,0.00,,,0.18,37,WeatherCatV1.14B232,2013-06-14 10:56:00,
2013-06-14 07:01:00,53.5,52.9,29.53,NNE,13,0.0,2.0,98,0.00,,,0.18,30,WeatherCatV1.14B232,2013-06-14 11:01:00,
2013-06-14 07:06:00,53.5,52.9,29.53,NNW,336,0.0,2.0,98,0.00,,,0.18,54,WeatherCatV1.14B232,2013-06-14 11:06:00,
2013-06-14 07:11:00,53.4,52.8,29.53,NNE,31,0.0,4.0,98,0.00,,,0.18,72,WeatherCatV1.14B232,2013-06-14 11:11:00,
2013-06-14 07:16:00,53.6,53.0,29.53,North,5,1.0,3.0,98,0.00,,,0.18,54,WeatherCatV1.14B232,2013-06-14 11:16:00,
2013-06-14 07:21:00,53.7,53.4,29.53,NW,322,2.0,2.0,99,0.00,,,0.18,51,WeatherCatV1.14B232,2013-06-14 11:21:00,
2013-06-14 07:26:00,53.7,53.1,29.53,NNE,30,3.0,5.0,98,0.00,,,0.18,60,WeatherCatV1.14B232,2013-06-14 11:26:00,
2013-06-14 07:31:00,53.8,53.2,29.54,NE,40,2.0,2.0,98,0.00,,,0.18,67,WeatherCatV1.14B232,2013-06-14 11:31:00,
2013-06-14 07:36:00,53.9,53.3,29.54,NE,38,0.0,4.0,98,0.00,,,0.18,104,WeatherCatV1.14B232,2013-06-14 11:36:00,
2013-06-14 07:41:00,54.0,53.4,29.54,North,5,2.0,6.0,98,0.00,,,0.18,90,WeatherCatV1.14B232,2013-06-14 11:41:00,
2013-06-14 07:46:00,54.2,53.6,29.54,NNE,18,2.0,2.0,98,0.00,,,0.18,53,WeatherCatV1.14B232,2013-06-14 11:46:00,
2013-06-14 07:51:00,54.1,53.5,29.54,North,9,0.0,3.0,98,0.00,,,0.18,54,WeatherCatV1.14B232,2013-06-14 11:51:00,
2013-06-14 07:56:00,54.2,53.6,29.54,NNE,25,0.0,3.0,98,0.00,,,0.18,65,WeatherCatV1.14B232,2013-06-14 11:56:00,
2013-06-14 08:01:00,54.2,53.6,29.54,North,0,0.0,0.0,98,0.00,,,0.18,91,WeatherCatV1.14B232,2013-06-14 12:01:00,
2013-06-14 08:06:00,54.4,53.8,29.55,NNW,342,0.0,1.0,98,0.00,,,0.18,93,WeatherCatV1.14B232,2013-06-14 12:06:00,
2013-06-14 08:11:00,54.4,53.8,29.55,NNW,343,0.0,1.0,98,0.00,,,0.18,105,WeatherCatV1.14B232,2013-06-14 12:11:00,
2013-06-14 08:16:00,54.8,54.2,29.55,NE,46,0.0,1.0,98,0.00,,,0.18,113,WeatherCatV1.14B232,2013-06-14 12:16:00,
2013-06-14 08:21:00,55.1,54.5,29.55,North,5,0.0,0.0,98,0.00,,,0.18,114,WeatherCatV1.14B232,2013-06-14 12:21:00,
2013-06-14 08:26:00,55.2,54.6,29.55,NNE,12,0.0,4.0,98,0.00,,,0.18,74,WeatherCatV1.14B232,2013-06-14 12:26:00,
2013-06-14 08:31:00,55.1,54.5,29.55,NE,49,0.0,2.0,98,0.00,,,0.18,102,WeatherCatV1.14B232,2013-06-14 12:31:00,
2013-06-14 08:36:00,55.3,54.7,29.55,NNE,14,6.0,6.0,98,0.00,,,0.19,79,WeatherCatV1.14B232,2013-06-14 12:36:00,
2013-06-14 08:41:00,55.2,54.4,29.55,NNW,338,0.0,1.0,97,0.00,,,0.19,95,WeatherCatV1.14B232,2013-06-14 12:41:00,
2013-06-14 08:46:00,55.2,54.4,29.55,NNE,24,0.0,2.0,97,0.00,,,0.19,91,WeatherCatV1.14B232,2013-06-14 12:46:00,
2013-06-14 08:51:00,55.3,54.5,29.55,North,5,2.0,4.0,97,0.00,,,0.19,86,WeatherCatV1.14B232,2013-06-14 12:51:00,
2013-06-14 08:56:00,55.4,54.6,29.55,North,5,0.0,0.0,97,0.00,,,0.19,95,WeatherCatV1.14B232,2013-06-14 12:56:00,
2013-06-14 09:01:00,55.5,54.7,29.55,North,9,1.0,2.0,97,0.00,,,0.19,105,WeatherCatV1.14B232,2013-06-14 13:01:00,
2013-06-14 09:06:00,55.6,54.8,29.56,NNW,329,1.0,2.0,97,0.00,,,0.19,116,WeatherCatV1.14B232,2013-06-14 13:06:00,
2013-06-14 09:11:00,55.9,54.8,29.56,North,355,0.0,0.0,96,0.00,,,0.19,127,WeatherCatV1.14B232,2013-06-14 13:11:00,
2013-06-14 09:16:00,56.2,55.4,29.56,North,355,0.0,0.0,97,0.00,,,0.19,121,WeatherCatV1.14B232,2013-06-14 13:16:00,
2013-06-14 09:21:00,56.4,55.3,29.57,NNE,13,0.0,3.0,96,0.00,,,0.19,107,WeatherCatV1.14B232,2013-06-14 13:21:00,
2013-06-14 09:26:00,56.3,54.9,29.58,NNE,24,1.0,3.0,95,0.00,,,0.19,90,WeatherCatV1.14B232,2013-06-14 13:26:00,
2013-06-14 09:31:00,56.3,55.2,29.58,North,355,0.0,3.0,96,0.00,,,0.19,83,WeatherCatV1.14B232,2013-06-14 13:31:00,
2013-06-14 09:36:00,56.2,54.8,29.58,NNE,12,0.0,5.0,95,0.00,,,0.19,83,WeatherCatV1.14B232,2013-06-14 13:36:00,
2013-06-14 09:41:00,56.1,54.1,29.58,NNE,13,0.0,4.0,93,0.00,,,0.19,83,WeatherCatV1.14B232,2013-06-14 13:41:00,
2013-06-14 09:46:00,56.1,54.4,29.58,North,11,0.0,3.0,94,0.00,,,0.19,93,WeatherCatV1.14B232,2013-06-14 13:46:00,
2013-06-14 09:51:00,56.1,54.1,29.59,NNE,13,2.0,2.0,93,0.00,,,0.19,95,WeatherCatV1.14B232,2013-06-14 13:51:00,
2013-06-14 09:56:00,56.2,54.5,29.59,North,10,1.0,1.0,94,0.00,,,0.19,102,WeatherCatV1.14B232,2013-06-14 13:56:00,
2013-06-14 10:01:00,56.2,54.2,29.60,NE,46,0.0,3.0,93,0.00,,,0.19,116,WeatherCatV1.14B232,2013-06-14 14:01:00,
2013-06-14 10:06:00,56.5,54.5,29.60,NE,36,0.0,1.0,93,0.00,,,0.19,132,WeatherCatV1.14B232,2013-06-14 14:06:00,
2013-06-14 10:11:00,56.6,54.9,29.61,NW,314,1.0,2.0,94,0.00,,,0.19,132,WeatherCatV1.14B232,2013-06-14 14:11:00,
2013-06-14 10:16:00,56.8,55.1,29.61,North,350,0.0,2.0,94,0.00,,,0.19,137,WeatherCatV1.14B232,2013-06-14 14:16:00,
2013-06-14 10:21:00,57.1,55.1,29.61,NNW,335,2.0,2.0,93,0.00,,,0.19,137,WeatherCatV1.14B232,2013-06-14 14:21:00,
2013-06-14 10:26:00,57.0,55.0,29.62,North,351,0.0,3.0,93,0.00,,,0.19,114,WeatherCatV1.14B232,2013-06-14 14:26:00,
2013-06-14 10:31:00,56.8,54.8,29.62,NNE,33,0.0,3.0,93,0.00,,,0.19,114,WeatherCatV1.14B232,2013-06-14 14:31:00,
2013-06-14 10:36:00,57.0,55.0,29.62,North,5,0.0,3.0,93,0.00,,,0.19,123,WeatherCatV1.14B232,2013-06-14 14:36:00,
2013-06-14 10:41:00,57.2,55.2,29.63,NW,324,1.0,2.0,93,0.00,,,0.19,132,WeatherCatV1.14B232,2013-06-14 14:41:00,
2013-06-14 10:46:00,57.2,55.2,29.63,SW,223,0.0,2.0,93,0.00,,,0.19,130,WeatherCatV1.14B232,2013-06-14 14:46:00,
2013-06-14 10:51:00,57.6,55.3,29.63,ENE,74,0.0,0.0,92,0.00,,,0.19,165,WeatherCatV1.14B232,2013-06-14 14:51:00,
2013-06-14 10:56:00,57.7,55.7,29.63,NW,315,0.0,1.0,93,0.00,,,0.19,179,WeatherCatV1.14B232,2013-06-14 14:56:00,
2013-06-14 11:01:00,57.9,55.3,29.63,ENE,63,0.0,1.0,91,0.00,,,0.19,302,WeatherCatV1.14B232,2013-06-14 15:01:00,
2013-06-14 11:06:00,58.6,56.3,29.63,NNW,336,1.0,3.0,92,0.00,,,0.19,260,WeatherCatV1.14B232,2013-06-14 15:06:00,
2013-06-14 11:11:00,58.8,56.2,29.63,NNW,329,1.0,2.0,91,0.00,,,0.19,350,WeatherCatV1.14B232,2013-06-14 15:11:00,
2013-06-14 11:16:00,58.9,56.0,29.63,NNW,333,0.0,3.0,90,0.00,,,0.19,251,WeatherCatV1.14B232,2013-06-14 15:16:00,
2013-06-14 11:21:00,59.2,56.3,29.63,WNW,298,3.0,3.0,90,0.00,,,0.19,227,WeatherCatV1.14B232,2013-06-14 15:21:00,
2013-06-14 11:26:00,59.1,56.2,29.63,NW,312,2.0,2.0,90,0.00,,,0.19,244,WeatherCatV1.14B232,2013-06-14 15:26:00,
2013-06-14 11:31:00,59.0,56.1,29.63,NW,309,1.0,3.0,90,0.00,,,0.19,223,WeatherCatV1.14B232,2013-06-14 15:31:00,
2013-06-14 11:36:00,59.1,55.9,29.64,NW,311,1.0,2.0,89,0.00,,,0.19,260,WeatherCatV1.14B232,2013-06-14 15:36:00,
2013-06-14 11:41:00,59.4,56.2,29.64,North,355,0.0,1.0,89,0.00,,,0.19,264,WeatherCatV1.14B232,2013-06-14 15:41:00,
2013-06-14 11:46:00,59.8,56.2,29.64,NW,313,1.0,2.0,88,0.00,,,0.19,373,WeatherCatV1.14B232,2013-06-14 15:46:00,
2013-06-14 11:51:00,60.2,56.3,29.64,WNW,300,2.0,3.0,87,0.00,,,0.19,327,WeatherCatV1.14B232,2013-06-14 15:51:00,
2013-06-14 11:56:00,60.1,56.2,29.64,NW,315,0.0,2.0,87,0.00,,,0.19,285,WeatherCatV1.14B232,2013-06-14 15:56:00,
2013-06-14 12:01:00,60.0,56.1,29.64,NW,306,0.0,2.0,87,0.00,,,0.19,227,WeatherCatV1.14B232,2013-06-14 16:01:00,
2013-06-14 12:06:00,59.7,56.1,29.65,NW,308,2.0,2.0,88,0.00,,,0.19,185,WeatherCatV1.14B232,2013-06-14 16:06:00,
2013-06-14 12:11:00,59.5,55.9,29.65,NW,325,0.0,2.0,88,0.00,,,0.19,183,WeatherCatV1.14B232,2013-06-14 16:11:00,
2013-06-14 12:16:00,59.4,55.5,29.65,WNW,300,1.0,2.0,87,0.00,,,0.19,207,WeatherCatV1.14B232,2013-06-14 16:16:00,
2013-06-14 12:21:00,59.5,55.6,29.64,WNW,302,1.0,2.0,87,0.00,,,0.19,232,WeatherCatV1.14B232,2013-06-14 16:21:00,
2013-06-14 12:26:00,59.9,56.0,29.64,WNW,302,0.0,1.0,87,0.00,,,0.19,265,WeatherCatV1.14B232,2013-06-14 16:26:00,
2013-06-14 12:31:00,60.2,56.0,29.64,WNW,302,0.0,0.0,86,0.00,,,0.19,302,WeatherCatV1.14B232,2013-06-14 16:31:00,
2013-06-14 12:36:00,60.4,56.2,29.64,NW,309,0.0,2.0,86,0.00,,,0.19,272,WeatherCatV1.14B232,2013-06-14 16:36:00,
2013-06-14 12:41:00,60.4,55.2,29.65,NW,310,1.0,2.0,83,0.00,,,0.19,262,WeatherCatV1.14B232,2013-06-14 16:41:00,
2013-06-14 12:46:00,60.4,55.2,29.65,WNW,300,0.0,2.0,83,0.00,,,0.19,276,WeatherCatV1.14B232,2013-06-14 16:46:00,
2013-06-14 12:51:00,60.4,56.2,29.65,WNW,300,0.0,3.0,86,0.00,,,0.19,341,WeatherCatV1.14B232,2013-06-14 16:51:00,
2013-06-14 12:56:00,61.3,55.8,29.65,NNW,336,0.0,2.0,82,0.00,,,0.19,380,WeatherCatV1.14B232,2013-06-14 16:56:00,
2013-06-14 13:01:00,62.0,56.8,29.65,NNW,342,0.0,3.0,83,0.00,,,0.19,383,WeatherCatV1.14B232,2013-06-14 17:01:00,
2013-06-14 13:06:00,62.5,56.2,29.65,NE,55,0.0,1.0,80,0.00,,,0.19,534,WeatherCatV1.14B232,2013-06-14 17:06:00,
2013-06-14 13:11:00,63.6,57.7,29.65,NNW,329,0.0,1.0,81,0.00,,,0.19,485,WeatherCatV1.14B232,2013-06-14 17:11:00,
2013-06-14 13:16:00,63.6,56.6,29.65,NW,313,1.0,2.0,78,0.00,,,0.19,420,WeatherCatV1.14B232,2013-06-14 17:16:00,
2013-06-14 13:21:00,63.7,57.4,29.65,NW,313,0.0,1.0,80,0.00,,,0.19,420,WeatherCatV1.14B232,2013-06-14 17:21:00,
2013-06-14 13:26:00,65.5,58.8,29.65,NW,313,0.0,1.0,79,0.00,,,0.19,953,WeatherCatV1.14B232,2013-06-14 17:26:00,
2013-06-14 13:31:00,65.9,58.1,29.65,NW,306,0.0,2.0,76,0.00,,,0.19,1164,WeatherCatV1.14B232,2013-06-14 17:31:00,
2013-06-14 13:36:00,66.1,57.9,29.65,NW,306,2.0,2.0,75,0.00,,,0.19,1106,WeatherCatV1.14B232,2013-06-14 17:36:00,
2013-06-14 13:41:00,66.6,58.0,29.65,NW,306,0.0,2.0,74,0.00,,,0.19,708,WeatherCatV1.14B232,2013-06-14 17:41:00,
2013-06-14 13:46:00,66.3,57.0,29.65,NW,306,0.0,2.0,72,0.00,,,0.19,633,WeatherCatV1.14B232,2013-06-14 17:46:00,
2013-06-14 13:51:00,67.2,58.6,29.65,NW,306,0.0,0.0,74,0.00,,,0.19,673,WeatherCatV1.14B232,2013-06-14 17:51:00,
2013-06-14 13:56:00,66.1,57.9,29.65,NW,306,0.0,0.0,75,0.00,,,0.19,455,WeatherCatV1.14B232,2013-06-14 17:56:00,
2013-06-14 14:01:00,65.4,56.1,29.65,NW,306,0.0,0.0,72,0.00,,,0.19,476,WeatherCatV1.14B232,2013-06-14 18:01:00,
2013-06-14 14:06:00,65.5,57.7,29.65,NW,306,0.0,0.0,76,0.00,,,0.19,552,WeatherCatV1.14B232,2013-06-14 18:06:00,
2013-06-14 14:11:00,65.7,57.2,29.65,NW,306,0.0,0.0,74,0.00,,,0.19,478,WeatherCatV1.14B232,2013-06-14 18:11:00,
2013-06-14 14:16:00,66.5,57.6,29.65,North,355,0.0,1.0,73,0.00,,,0.19,682,WeatherCatV1.14B232,2013-06-14 18:16:00,
2013-06-14 14:21:00,67.4,58.0,29.65,North,349,0.0,0.0,72,0.00,,,0.19,682,WeatherCatV1.14B232,2013-06-14 18:21:00,
2013-06-14 14:26:00,67.4,56.9,29.65,NNW,338,0.0,0.0,69,0.00,,,0.19,935,WeatherCatV1.14B232,2013-06-14 18:26:00,
2013-06-14 14:31:00,67.8,59.6,29.65,SE,146,0.0,0.0,75,0.00,,,0.19,735,WeatherCatV1.14B232,2013-06-14 18:31:00,
2013-06-14 14:36:00,68.4,57.0,29.64,ESE,108,0.0,1.0,67,0.00,,,0.19,1028,WeatherCatV1.14B232,2013-06-14 18:36:00,
2013-06-14 14:41:00,67.2,57.1,29.64,ESE,108,0.0,0.0,70,0.00,,,0.19,167,WeatherCatV1.14B232,2013-06-14 18:41:00,
2013-06-14 14:46:00,68.1,56.7,29.64,ESE,108,0.0,1.0,67,0.00,,,0.19,902,WeatherCatV1.14B232,2013-06-14 18:46:00,
2013-06-14 14:51:00,68.8,59.4,29.64,ESE,107,0.0,0.0,72,0.00,,,0.19,912,WeatherCatV1.14B232,2013-06-14 18:51:00,
2013-06-14 14:56:00,69.8,59.2,29.64,ESE,107,0.0,0.0,69,0.00,,,0.19,882,WeatherCatV1.14B232,2013-06-14 18:56:00,
2013-06-14 15:01:00,70.2,57.9,29.64,ESE,103,4.0,4.0,65,0.00,,,0.19,868,WeatherCatV1.14B232,2013-06-14 19:01:00,
2013-06-14 15:06:00,70.3,58.0,29.64,ESE,112,0.0,0.0,65,0.00,,,0.19,861,WeatherCatV1.14B232,2013-06-14 19:06:00,
2013-06-14 15:11:00,70.0,58.9,29.64,ESE,112,0.0,0.0,68,0.00,,,0.19,853,WeatherCatV1.14B232,2013-06-14 19:11:00,
2013-06-14 15:16:00,70.2,59.5,29.64,SSE,155,0.0,0.0,69,0.00,,,0.19,842,WeatherCatV1.14B232,2013-06-14 19:16:00,
2013-06-14 15:21:00,70.0,57.7,29.63,NW,316,0.0,2.0,65,0.00,,,0.19,831,WeatherCatV1.14B232,2013-06-14 19:21:00,
2013-06-14 15:26:00,70.3,58.8,29.63,SE,124,0.0,1.0,67,0.00,,,0.19,821,WeatherCatV1.14B232,2013-06-14 19:26:00,
2013-06-14 15:31:00,70.4,59.3,29.63,WSW,253,0.0,0.0,68,0.00,,,0.19,803,WeatherCatV1.14B232,2013-06-14 19:31:00,
2013-06-14 15:36:00,70.4,58.9,29.63,NNW,348,0.0,0.0,67,0.00,,,0.19,796,WeatherCatV1.14B232,2013-06-14 19:36:00,
2013-06-14 15:41:00,70.6,56.9,29.62,ESE,103,0.0,2.0,62,0.00,,,0.19,782,WeatherCatV1.14B232,2013-06-14 19:41:00,
2013-06-14 15:46:00,70.4,58.1,29.63,SSW,206,1.0,1.0,65,0.00,,,0.19,773,WeatherCatV1.14B232,2013-06-14 19:46:00,
2013-06-14 15:51:00,70.5,57.7,29.63,SW,235,0.0,2.0,64,0.00,,,0.19,761,WeatherCatV1.14B232,2013-06-14 19:51:00,
2013-06-14 15:56:00,70.1,56.5,29.62,WNW,290,0.0,1.0,62,0.00,,,0.19,689,WeatherCatV1.14B232,2013-06-14 19:56:00,
2013-06-14 16:01:00,70.8,56.7,29.62,SSW,199,0.0,1.0,61,0.00,,,0.19,529,WeatherCatV1.14B232,2013-06-14 20:01:00,
2013-06-14 16:06:00,70.8,57.6,29.62,SSE,163,0.0,2.0,63,0.00,,,0.19,352,WeatherCatV1.14B232,2013-06-14 20:06:00,
2013-06-14 16:11:00,70.6,59.1,29.62,WSW,257,0.0,1.0,67,0.00,,,0.19,188,WeatherCatV1.14B232,2013-06-14 20:11:00,
2013-06-14 16:16:00,70.1,58.6,29.62,WSW,257,0.0,0.0,67,0.00,,,0.19,253,WeatherCatV1.14B232,2013-06-14 20:16:00,
2013-06-14 16:21:00,69.8,58.3,29.62,WSW,257,0.0,0.0,67,0.00,,,0.19,202,WeatherCatV1.14B232,2013-06-14 20:21:00,
2013-06-14 16:26:00,70.0,57.7,29.63,WSW,257,0.0,0.0,65,0.00,,,0.19,134,WeatherCatV1.14B232,2013-06-14 20:26:00,
2013-06-14 16:31:00,69.6,56.4,29.63,North,5,0.0,2.0,63,0.00,,,0.19,84,WeatherCatV1.14B232,2013-06-14 20:31:00,
2013-06-14 16:36:00,69.6,58.1,29.63,North,5,0.0,0.0,67,0.00,,,0.19,70,WeatherCatV1.14B232,2013-06-14 20:36:00,
2013-06-14 16:41:00,69.3,57.0,29.63,North,5,0.0,0.0,65,0.00,,,0.19,104,WeatherCatV1.14B232,2013-06-14 20:41:00,
2013-06-14 16:46:00,69.3,61.0,29.63,North,5,0.0,0.0,75,0.00,,,0.19,81,WeatherCatV1.14B232,2013-06-14 20:46:00,
2013-06-14 16:51:00,69.4,58.4,29.63,East,92,0.0,2.0,68,0.00,,,0.19,63,WeatherCatV1.14B232,2013-06-14 20:51:00,
2013-06-14 16:56:00,69.5,57.2,29.63,East,92,0.0,0.0,65,0.00,,,0.19,37,WeatherCatV1.14B232,2013-06-14 20:56:00,
2013-06-14 17:01:00,69.0,58.4,29.63,East,92,1.0,1.0,69,0.00,,,0.19,26,WeatherCatV1.14B232,2013-06-14 21:01:00,
2013-06-14 17:06:00,68.8,57.4,29.64,SSE,162,2.0,5.0,67,0.00,,,0.19,19,WeatherCatV1.14B232,2013-06-14 21:06:00,
2013-06-14 17:11:00,68.5,57.1,29.64,ESE,116,0.0,6.0,67,0.00,,,0.19,21,WeatherCatV1.14B232,2013-06-14 21:11:00,
2013-06-14 17:16:00,68.0,56.2,29.64,ESE,122,0.0,4.0,66,0.00,,,0.19,25,WeatherCatV1.14B232,2013-06-14 21:16:00,
2013-06-14 17:21:00,67.6,56.2,29.64,East,91,0.0,1.0,67,0.00,,,0.19,37,WeatherCatV1.14B232,2013-06-14 21:21:00,
2013-06-14 17:26:00,67.4,55.6,29.64,ESE,109,0.0,4.0,66,0.00,,,0.19,72,WeatherCatV1.14B232,2013-06-14 21:26:00,
2013-06-14 17:31:00,67.5,55.7,29.64,ESE,107,4.0,7.0,66,0.00,,,0.19,81,WeatherCatV1.14B232,2013-06-14 21:31:00,
2013-06-14 17:36:00,67.5,55.7,29.64,ESE,120,0.0,5.0,66,0.00,,,0.19,70,WeatherCatV1.14B232,2013-06-14 21:36:00,
2013-06-14 17:41:00,67.6,55.4,29.64,East,90,4.0,7.0,65,0.00,,,0.19,76,WeatherCatV1.14B232,2013-06-14 21:41:00,
2013-06-14 17:46:00,67.6,55.4,29.64,SW,217,1.0,4.0,65,0.00,,,0.19,44,WeatherCatV1.14B232,2013-06-14 21:46:00,
2013-06-14 17:51:00,67.5,55.3,29.64,ESE,113,4.0,4.0,65,0.00,,,0.19,21,WeatherCatV1.14B232,2013-06-14 21:51:00,
2013-06-14 17:56:00,67.3,55.5,29.65,East,82,1.0,2.0,66,0.00,,,0.19,49,WeatherCatV1.14B232,2013-06-14 21:56:00,
2013-06-14 18:01:00,67.3,55.5,29.65,ESE,115,1.0,4.0,66,0.00,,,0.19,39,WeatherCatV1.14B232,2013-06-14 22:01:00,
2013-06-14 18:06:00,67.3,55.5,29.65,ESE,114,0.0,4.0,66,0.00,,,0.19,19,WeatherCatV1.14B232,2013-06-14 22:06:00,
2013-06-14 18:11:00,67.2,55.4,29.65,East,96,2.0,2.0,66,0.00,,,0.19,5,WeatherCatV1.14B232,2013-06-14 22:11:00,
2013-06-14 18:16:00,67.2,55.0,29.65,East,86,3.0,5.0,65,0.00,,,0.19,5,WeatherCatV1.14B232,2013-06-14 22:16:00,
2013-06-14 18:21:00,67.1,55.8,29.65,ESE,116,4.0,4.0,67,0.00,,,0.19,16,WeatherCatV1.14B232,2013-06-14 22:21:00,
2013-06-14 18:26:00,66.8,57.5,29.66,NNE,32,0.0,0.0,72,0.00,,,0.19,49,WeatherCatV1.14B232,2013-06-14 22:26:00,
2013-06-14 18:31:00,66.2,57.3,29.66,East,85,2.0,2.0,73,0.00,,,0.19,19,WeatherCatV1.14B232,2013-06-14 22:31:00,
2013-06-14 18:36:00,65.9,57.7,29.66,East,85,2.0,2.0,75,0.00,,,0.19,16,WeatherCatV1.14B232,2013-06-14 22:36:00,
2013-06-14 18:41:00,65.3,58.6,29.66,ESE,107,1.0,2.0,79,0.00,,,0.19,30,WeatherCatV1.14B232,2013-06-14 22:41:00,
2013-06-14 18:46:00,64.1,58.5,29.67,ESE,106,0.0,1.0,82,0.00,,,0.20,25,WeatherCatV1.14B232,2013-06-14 22:46:00,
2013-06-14 18:51:00,62.9,59.0,29.67,SE,126,2.0,2.0,87,0.38,,,0.23,21,WeatherCatV1.14B232,2013-06-14 22:51:00,
2013-06-14 18:56:00,62.2,58.6,29.67,ESE,117,0.0,2.0,88,0.28,,,0.25,19,WeatherCatV1.14B232,2013-06-14 22:56:00,
2013-06-14 19:01:00,61.6,58.9,29.67,ESE,117,0.0,0.0,91,0.19,,,0.27,21,WeatherCatV1.14B232,2013-06-14 23:01:00,
2013-06-14 19:06:00,61.3,59.0,29.67,SE,135,1.0,1.0,92,0.09,,,0.27,26,WeatherCatV1.14B232,2013-06-14 23:06:00,
2013-06-14 19:11:00,61.3,59.3,29.67,SW,217,0.0,1.0,93,0.08,,,0.28,37,WeatherCatV1.14B232,2013-06-14 23:11:00,
2013-06-14 19:16:00,61.4,59.4,29.67,ESE,119,2.0,4.0,93,0.06,,,0.28,32,WeatherCatV1.14B232,2013-06-14 23:16:00,
2013-06-14 19:21:00,61.4,59.1,29.67,SE,136,2.0,4.0,92,0.04,,,0.28,26,WeatherCatV1.14B232,2013-06-14 23:21:00,
2013-06-14 19:26:00,61.3,59.0,29.67,ESE,107,0.0,2.0,92,0.00,,,0.28,26,WeatherCatV1.14B232,2013-06-14 23:26:00,
2013-06-14 19:31:00,61.1,58.4,29.67,SE,132,1.0,4.0,91,0.00,,,0.28,14,WeatherCatV1.14B232,2013-06-14 23:31:00,
2013-06-14 19:36:00,61.1,58.4,29.67,ESE,123,1.0,6.0,91,0.00,,,0.28,11,WeatherCatV1.14B232,2013-06-14 23:36:00,
2013-06-14 19:41:00,61.1,58.4,29.68,SE,129,0.0,5.0,91,0.00,,,0.28,14,WeatherCatV1.14B232,2013-06-14 23:41:00,
2013-06-14 19:46:00,61.0,58.7,29.68,SE,128,0.0,0.0,92,0.00,,,0.28,12,WeatherCatV1.14B232,2013-06-14 23:46:00,
2013-06-14 19:51:00,60.7,58.7,29.67,ESE,113,0.0,1.0,93,0.00,,,0.28,14,WeatherCatV1.14B232,2013-06-14 23:51:00,
2013-06-14 19:56:00,60.7,58.7,29.68,SSE,152,0.0,2.0,93,0.00,,,0.28,14,WeatherCatV1.14B232,2013-06-14 23:56:00,
2013-06-14 20:01:00,60.7,58.7,29.68,East,96,0.0,2.0,93,0.00,,,0.28,11,WeatherCatV1.14B232,2013-06-15 00:01:00,
2013-06-14 20:06:00,60.8,58.8,29.68,ESE,115,0.0,1.0,93,0.00,,,0.28,11,WeatherCatV1.14B232,2013-06-15 00:06:00,
2013-06-14 20:11:00,60.7,58.7,29.68,ESE,115,4.0,5.0,93,0.00,,,0.28,7,WeatherCatV1.14B232,2013-06-15 00:11:00,
2013-06-14 20:16:00,60.7,58.7,29.68,SSW,202,0.0,3.0,93,0.00,,,0.28,5,WeatherCatV1.14B232,2013-06-15 00:16:00,
2013-06-14 20:21:00,60.7,58.7,29.68,ESE,115,1.0,2.0,93,0.00,,,0.28,0,WeatherCatV1.14B232,2013-06-15 00:21:00,
2013-06-14 20:26:00,60.6,58.6,29.68,SE,125,1.0,5.0,93,0.00,,,0.28,0,WeatherCatV1.14B232,2013-06-15 00:26:00,
2013-06-14 20:31:00,60.7,58.4,29.68,ESE,109,1.0,5.0,92,0.00,,,0.28,0,WeatherCatV1.14B232,2013-06-15 00:31:00,
2013-06-14 20:36:00,60.7,58.4,29.68,ESE,109,0.0,2.0,92,0.00,,,0.28,0,WeatherCatV1.14B232,2013-06-15 00:36:00,
2013-06-14 20:41:00,60.5,58.5,29.68,ESE,109,1.0,1.0,93,0.00,,,0.28,0,WeatherCatV1.14B232,2013-06-15 00:41:00,
2013-06-14 20:46:00,60.3,58.3,29.68,ESE,109,0.0,0.0,93,0.00,,,0.28,0,WeatherCatV1.14B232,2013-06-15 00:46:00,
2013-06-14 20:51:00,60.2,58.5,29.68,ESE,109,0.0,0.0,94,0.00,,,0.28,0,WeatherCatV1.14B232,2013-06-15 00:51:00,
2013-06-14 20:56:00,60.2,58.5,29.68,ESE,114,0.0,2.0,94,0.00,,,0.28,0,WeatherCatV1.14B232,2013-06-15 00:56:00,
2013-06-14 21:01:00,60.5,58.5,29.69,ESE,107,0.0,0.0,93,0.00,,,0.28,0,WeatherCatV1.14B232,2013-06-15 01:01:00,
2013-06-14 21:06:00,60.5,58.5,29.69,ESE,107,0.0,1.0,93,0.00,,,0.28,0,WeatherCatV1.14B232,2013-06-15 01:06:00,
2013-06-14 21:11:00,60.1,58.4,29.69,ESE,107,0.0,0.0,94,0.00,,,0.28,0,WeatherCatV1.14B232,2013-06-15 01:11:00,
2013-06-14 21:16:00,59.8,58.1,29.69,ESE,107,0.0,0.0,94,0.00,,,0.28,0,WeatherCatV1.14B232,2013-06-15 01:16:00,
2013-06-14 21:21:00,59.5,58.1,29.69,ESE,107,0.0,0.0,95,0.00,,,0.28,0,WeatherCatV1.14B232,2013-06-15 01:21:00,
2013-06-14 21:26:00,59.4,58.0,29.69,ESE,107,0.0,0.0,95,0.00,,,0.28,0,WeatherCatV1.14B232,2013-06-15 01:26:00,
2013-06-14 21:31:00,59.2,58.1,29.69,ESE,107,0.0,0.0,96,0.00,,,0.28,0,WeatherCatV1.14B232,2013-06-15 01:31:00,
2013-06-14 21:36:00,58.9,57.8,29.70,ESE,107,0.0,0.0,96,0.00,,,0.28,0,WeatherCatV1.14B232,2013-06-15 01:36:00,
2013-06-14 21:41:00,58.9,57.8,29.70,ESE,107,0.0,0.0,96,0.00,,,0.28,0,WeatherCatV1.14B232,2013-06-15 01:41:00,
2013-06-14 21:46:00,58.8,57.7,29.70,ESE,107,0.0,0.0,96,0.00,,,0.28,0,WeatherCatV1.14B232,2013-06-15 01:46:00,
2013-06-14 21:51:00,58.7,57.6,29.70,ESE,107,0.0,0.0,96,0.00,,,0.28,0,WeatherCatV1.14B232,2013-06-15 01:51:00,
2013-06-14 21:56:00,58.6,57.5,29.70,ESE,107,0.0,0.0,96,0.00,,,0.28,0,WeatherCatV1.14B232,2013-06-15 01:56:00,
2013-06-14 22:01:00,58.6,57.5,29.70,ESE,107,0.0,0.0,96,0.00,,,0.28,0,WeatherCatV1.14B232,2013-06-15 02:01:00,
2013-06-14 22:06:00,58.4,57.3,29.71,ESE,107,0.0,0.0,96,0.00,,,0.28,0,WeatherCatV1.14B232,2013-06-15 02:06:00,
2013-06-14 22:11:00,58.4,57.3,29.71,ESE,107,0.0,0.0,96,0.00,,,0.28,0,WeatherCatV1.14B232,2013-06-15 02:11:00,
2013-06-14 22:16:00,58.4,57.3,29.71,ESE,107,0.0,0.0,96,0.00,,,0.28,0,WeatherCatV1.14B232,2013-06-15 02:16:00,
2013-06-14 22:21:00,58.4,57.3,29.71,ESE,107,0.0,0.0,96,0.00,,,0.28,0,WeatherCatV1.14B232,2013-06-15 02:21:00,
2013-06-14 22:26:00,58.5,57.4,29.71,ESE,107,0.0,0.0,96,0.00,,,0.28,0,WeatherCatV1.14B232,2013-06-15 02:26:00,
2013-06-14 22:31:00,58.6,57.5,29.71,ESE,107,0.0,0.0,96,0.00,,,0.28,0,WeatherCatV1.14B232,2013-06-15 02:31:00,
2013-06-14 22:36:00,58.6,57.5,29.71,ESE,107,0.0,0.0,96,0.00,,,0.28,0,WeatherCatV1.14B232,2013-06-15 02:36:00,
2013-06-14 22:41:00,58.7,57.6,29.72,ESE,107,0.0,0.0,96,0.00,,,0.28,0,WeatherCatV1.14B232,2013-06-15 02:41:00,
2013-06-14 22:46:00,58.7,57.3,29.72,ESE,107,0.0,0.0,95,0.00,,,0.28,0,WeatherCatV1.14B232,2013-06-15 02:46:00,
2013-06-14 22:51:00,58.9,57.5,29.72,ESE,107,0.0,0.0,95,0.00,,,0.28,0,WeatherCatV1.14B232,2013-06-15 02:51:00,
2013-06-14 22:56:00,59.2,57.5,29.72,ESE,107,0.0,0.0,94,0.00,,,0.28,0,WeatherCatV1.14B232,2013-06-15 02:56:00,
2013-06-14 23:01:00,59.3,57.6,29.72,ESE,107,0.0,0.0,94,0.00,,,0.28,0,WeatherCatV1.14B232,2013-06-15 03:01:00,
2013-06-14 23:06:00,59.3,57.3,29.72,ESE,107,0.0,0.0,93,0.00,,,0.28,0,WeatherCatV1.14B232,2013-06-15 03:06:00,
2013-06-14 23:11:00,59.4,57.4,29.72,ESE,107,0.0,0.0,93,0.00,,,0.28,0,WeatherCatV1.14B232,2013-06-15 03:11:00,
2013-06-14 23:16:00,59.5,57.5,29.72,ESE,107,0.0,0.0,93,0.00,,,0.28,0,WeatherCatV1.14B232,2013-06-15 03:16:00,
2013-06-14 23:21:00,59.7,57.7,29.72,ESE,107,0.0,0.0,93,0.00,,,0.28,0,WeatherCatV1.14B232,2013-06-15 03:21:00,
2013-06-14 23:26:00,59.7,57.4,29.72,ESE,107,0.0,0.0,92,0.00,,,0.28,0,WeatherCatV1.14B232,2013-06-15 03:26:00,
2013-06-14 23:31:00,59.7,57.7,29.72,ESE,107,0.0,0.0,93,0.00,,,0.28,0,WeatherCatV1.14B232,2013-06-15 03:31:00,
2013-06-14 23:36:00,59.8,57.5,29.72,ESE,107,0.0,0.0,92,0.00,,,0.28,0,WeatherCatV1.14B232,2013-06-15 03:36:00,
2013-06-14 23:41:00,59.9,57.6,29.72,ESE,107,0.0,0.0,92,0.00,,,0.28,0,WeatherCatV1.14B232,2013-06-15 03:41:00,
2013-06-14 23:46:00,59.9,57.6,29.73,ESE,107,0.0,0.0,92,0.00,,,0.28,0,WeatherCatV1.14B232,2013-06-15 03:46:00,
2013-06-14 23:51:00,59.8,57.5,29.73,ESE,107,0.0,0.0,92,0.00,,,0.28,0,WeatherCatV1.14B232,2013-06-15 03:51:00,
2013-06-14 23:56:00,59.8,57.5,29.73,ESE,107,0.0,0.0,92,0.00,,,0.28,0,WeatherCatV1.14B232,2013-06-15 03:56:00,